Weather reports worldwide

Advertisment
Cardiff, Bute Park, United Kingdom (99160): temperature & dewpoint: 09.08.2018 20:00:00 - 15.08.2018 20:00:00 (BST)Cardiff, Bute Park, United Kingdom (99160): temperature -20cm & temperature -100cm: 09.08.2018 20:00:00 - 15.08.2018 20:00:00 (BST)Cardiff, Bute Park, United Kingdom (99160): precipitation: 09.08.2018 20:00:00 - 15.08.2018 20:00:00 (BST)
Date & Time tt [°C] td [°C] tt -20cm [°C] tt -100cm [°C] rr [mm]
15.08.2018 20:00:00 - - - - -
15.08.2018 19:00:00 19,8 16,0 - - 0,0
15.08.2018 18:00:00 20,7 15,1 - - 0,0
15.08.2018 17:00:00 22,0 15,4 - - 0,0
15.08.2018 16:00:00 22,9 15,0 - - 0,0
15.08.2018 15:00:00 21,5 15,4 - - 0,0
15.08.2018 14:00:00 21,0 15,4 - - 0,0
15.08.2018 13:00:00 20,3 14,8 - - 0,0
15.08.2018 12:00:00 20,5 15,6 - - 0,0
15.08.2018 11:00:00 19,7 15,5 - - 0,0
15.08.2018 10:00:00 18,7 16,1 19,2 18,5 0,0
15.08.2018 09:00:00 18,1 16,8 - - 0,0
15.08.2018 08:00:00 18,0 16,7 - - 0,0
15.08.2018 07:00:00 17,8 16,2 - - 0,0
15.08.2018 06:00:00 17,4 16,2 - - 0,2
15.08.2018 05:00:00 17,4 16,0 - - 0,0
15.08.2018 04:00:00 17,5 15,5 - - 0,0
15.08.2018 03:00:00 17,4 14,2 - - 0,0
15.08.2018 02:00:00 17,3 14,1 - - 0,0
15.08.2018 01:00:00 17,5 14,3 - - 0,0
15.08.2018 00:00:00 17,5 14,8 - - 0,0
14.08.2018 23:00:00 17,6 14,2 - - 0,0
14.08.2018 22:00:00 17,6 13,6 - - 0,0
14.08.2018 21:00:00 17,9 13,9 - - 0,0
14.08.2018 20:00:00 18,0 13,0 - - 0,0
14.08.2018 19:00:00 18,2 13,4 - - 0,0
14.08.2018 18:00:00 18,8 13,7 - - 0,0
14.08.2018 17:00:00 19,4 13,7 - - 0,0
14.08.2018 16:00:00 20,2 15,7 - - 0,0
14.08.2018 15:00:00 19,3 15,9 - - 0,0
14.08.2018 14:00:00 19,9 16,3 - - 0,0
14.08.2018 13:00:00 19,4 16,0 - - 0,0
14.08.2018 12:00:00 19,9 14,8 - - 0,0
14.08.2018 11:00:00 21,0 15,5 - - 0,0
14.08.2018 10:00:00 19,6 16,2 19,0 18,7 0,0
14.08.2018 09:00:00 17,2 15,2 - - 0,0
14.08.2018 08:00:00 15,7 15,4 - - 0,0
14.08.2018 07:00:00 14,9 14,7 - - 0,0
14.08.2018 06:00:00 14,6 14,4 - - 0,0
14.08.2018 05:00:00 14,2 14,1 - - 0,0
14.08.2018 04:00:00 13,7 13,4 - - 0,0
14.08.2018 03:00:00 13,0 12,5 - - 0,0
14.08.2018 02:00:00 13,8 13,1 - - 0,0
14.08.2018 01:00:00 14,6 13,9 - - 0,0
14.08.2018 00:00:00 14,3 13,6 - - 0,0
13.08.2018 23:00:00 14,3 13,3 - - 0,0
13.08.2018 22:00:00 14,9 13,1 - - 0,0
13.08.2018 21:00:00 16,8 12,5 - - 0,0
13.08.2018 20:00:00 19,1 12,3 - - 0,0
13.08.2018 19:00:00 20,4 11,8 - - 0,0
13.08.2018 18:00:00 22,0 13,6 - - 0,0
13.08.2018 17:00:00 21,0 14,4 - - 0,0
13.08.2018 16:00:00 20,5 15,1 - - 0,0
13.08.2018 15:00:00 21,8 16,1 - - 0,0
13.08.2018 14:00:00 22,1 15,8 - - 0,0
13.08.2018 13:00:00 20,9 16,0 - - 0,0
13.08.2018 12:00:00 20,5 15,7 - - 0,0
13.08.2018 11:00:00 19,6 15,9 - - 0,0
13.08.2018 10:00:00 19,0 15,2 18,9 18,7 0,0
13.08.2018 09:00:00 18,1 15,3 - - 0,0
13.08.2018 08:00:00 15,3 15,0 - - 0,0
13.08.2018 07:00:00 14,7 14,5 - - 0,0
13.08.2018 06:00:00 15,1 14,8 - - 0,0
13.08.2018 05:00:00 15,7 15,5 - - 0,0
13.08.2018 04:00:00 15,7 15,6 - - 0,0
13.08.2018 03:00:00 15,7 15,5 - - 0,0
13.08.2018 02:00:00 15,7 15,5 - - 0,0
13.08.2018 01:00:00 15,9 15,6 - - 0,0
13.08.2018 00:00:00 15,8 15,5 - - 0,0
12.08.2018 23:00:00 15,7 15,3 - - 0,0
12.08.2018 22:00:00 15,7 15,0 - - 0,0
12.08.2018 21:00:00 16,5 15,6 - - 1,2
12.08.2018 20:00:00 17,5 15,8 - - 0,4
12.08.2018 19:00:00 18,3 15,6 - - 0,0
12.08.2018 18:00:00 18,6 15,8 - - 0,0
12.08.2018 17:00:00 20,2 15,9 - - 0,0
12.08.2018 16:00:00 20,1 16,0 - - 0,0
12.08.2018 15:00:00 19,0 17,1 - - 0,0
12.08.2018 14:00:00 19,9 16,9 - - 0,0
12.08.2018 13:00:00 19,5 16,7 - - 0,0
12.08.2018 12:00:00 18,6 16,8 - - 0,8
12.08.2018 11:00:00 18,1 16,6 - - 0,0
12.08.2018 10:00:00 17,8 17,1 18,7 18,9 0,0
12.08.2018 09:00:00 17,1 16,5 - - 0,2
12.08.2018 08:00:00 16,9 16,3 - - 3,0
12.08.2018 07:00:00 16,8 16,1 - - 0,6
12.08.2018 06:00:00 16,6 16,1 - - 2,8
12.08.2018 05:00:00 16,7 16,1 - - 2,2
12.08.2018 04:00:00 17,0 16,1 - - 1,0
12.08.2018 03:00:00 17,0 16,2 - - 1,6
12.08.2018 02:00:00 17,1 16,6 - - 2,0
12.08.2018 01:00:00 17,0 16,6 - - 7,4
12.08.2018 00:00:00 16,8 16,4 - - 7,0
11.08.2018 23:00:00 16,5 16,1 - - 5,4
11.08.2018 22:00:00 16,2 15,6 - - 6,6
11.08.2018 21:00:00 17,0 16,0 - - 1,0
11.08.2018 20:00:00 17,5 15,6 - - 0,2
11.08.2018 19:00:00 17,6 15,7 - - 0,0
11.08.2018 18:00:00 17,1 16,2 - - 1,4
11.08.2018 17:00:00 17,1 16,6 - - 1,2
11.08.2018 16:00:00 17,1 16,6 - - 2,6
11.08.2018 15:00:00 16,7 16,1 - - 1,2
11.08.2018 14:00:00 15,7 14,9 - - 0,4
11.08.2018 13:00:00 15,0 14,3 - - 1,0
11.08.2018 12:00:00 14,8 13,5 - - 0,2
11.08.2018 11:00:00 15,9 10,4 - - 0,0
11.08.2018 10:00:00 16,1 11,0 18,7 19,0 0,0
11.08.2018 09:00:00 14,6 11,9 - - 0,0
11.08.2018 08:00:00 11,0 10,9 - - 0,0
11.08.2018 07:00:00 8,1 8,0 - - 0,0
11.08.2018 06:00:00 7,5 7,2 - - 0,0
11.08.2018 05:00:00 7,9 7,6 - - 0,0
11.08.2018 04:00:00 8,4 8,0 - - 0,0
11.08.2018 03:00:00 8,8 8,3 - - 0,0
11.08.2018 02:00:00 9,2 8,7 - - 0,0
11.08.2018 01:00:00 9,4 8,7 - - 0,0
11.08.2018 00:00:00 10,2 9,0 - - 0,0
10.08.2018 23:00:00 11,2 9,7 - - 0,0
10.08.2018 22:00:00 12,4 9,5 - - 0,0
10.08.2018 21:00:00 14,9 9,1 - - 0,0
10.08.2018 20:00:00 16,7 9,7 - - 0,0
10.08.2018 19:00:00 17,2 10,1 - - 0,0
10.08.2018 18:00:00 18,0 9,3 - - 0,0
10.08.2018 17:00:00 19,0 10,7 - - 0,0
10.08.2018 16:00:00 19,2 9,7 - - 0,0
10.08.2018 15:00:00 20,1 11,6 - - 0,0
10.08.2018 14:00:00 19,7 12,2 - - 0,0
10.08.2018 13:00:00 18,3 12,4 - - 0,0
10.08.2018 12:00:00 17,7 14,7 - - 0,0
10.08.2018 11:00:00 14,6 13,0 - - 0,2
10.08.2018 10:00:00 13,0 12,6 19,5 19,0 5,2
10.08.2018 09:00:00 12,5 12,2 - - 4,0
10.08.2018 08:00:00 12,8 12,7 - - 2,0
10.08.2018 07:00:00 12,4 12,2 - - 1,4
10.08.2018 06:00:00 11,5 11,3 - - 0,0
10.08.2018 05:00:00 11,2 10,6 - - 1,0
10.08.2018 04:00:00 12,3 12,0 - - 2,2
10.08.2018 03:00:00 12,0 11,4 - - 0,2
10.08.2018 02:00:00 12,6 11,9 - - 0,6
10.08.2018 01:00:00 12,5 11,2 - - 0,0
10.08.2018 00:00:00 12,9 11,2 - - 0,0
09.08.2018 23:00:00 13,6 10,8 - - 0,2
09.08.2018 22:00:00 14,0 9,2 - - 0,0
09.08.2018 21:00:00 15,2 9,6 - - 0,0
09.08.2018 20:00:00 16,6 9,4 - - 0,0

tt = temperature
td = dewpoint
tt -20cm = temperature -20cm
tt -100cm = temperature -100cm
rr = precipitation

Next stations